Voltar ao catálogo

STARLINK-37581

AtivoComunicaçõesVLEO
NORAD 69366·PAYLOAD·🇺🇸 United States

Lançado Jun 4, 2026 de Cape Canaveral Space Force Station

Loading…

Próximas Passagens (próximas 24 horas)

TLE

AtualizadoSource: CelesTrak SupGP

Época: Sep 14, 2026, 23:28 UTC

1 69366C 26123P   26257.97826389 -.00027002  00000+0 -79805-3 0  2579
2 69366  53.1578 167.5794 0001258  75.9003 207.3350 15.34392863    15

Acompanhe STARLINK-37581 em tempo real com AllMySat

Download on the App Store